Flag for France Weather past 2 weeks in Nantes, France

Now
45 °F

Clear.


Feels Like: 43 °F
Forecast: 36 / 52 °F
Wind: 3 mph from Northwest

Location: Nantes Airport

Current Time: Mar 27, 2015 at 12:52:38 AM

Latest Report: Mar 27, 2015 at 12:30 AM


Visibility: 10 mi

Pressure: 30.12 "Hg

Humidity: 81%

Dew point: 39 °F

Location of NantesLocation

Historic Weather in Nantes — Graph

°F

Nantes temperature yesterday

Maximum temperature yesterday: 57 °F (at 3:30 PM)
Minimum temperature yesterday: 34 °F (at 12:30 AM)
Average temperature yesterday: 47 °F

Past Weeks' High & Low Weather Summary

 TemperatureHumidityPressure
High63 °F (Mar 18, 3:00 PM)100% (Mar 12, 1:30 AM)30.33 "Hg (Mar 12, 1:30 AM)
Low30 °F (Mar 25, 6:30 AM)42% (Mar 17, 5:00 PM)29.77 "Hg (Mar 26, 12:00 PM)
Average47 °F76%30.11 "Hg
* Reported Midnight between Mar 11 and Mar 12 — Midnight between Mar 26 and Mar 27, Nantes, Weather by CustomWeather, © 2015

Note: Actual official high and low records may vary slightly from our data, if they occured in-between our weather recording intervals... More about our weather records

Advertising

Nantes weather history for previous 24 hours

 ConditionsComfort  
Time TempWeatherWind HumidityBarometerVisibility
12:00 AM
Fri, Mar 27
43 °FClear.3 mph87%30.12 "Hg10 mi
11:30 PM
Thu, Mar 26
45 °FClear.5 mph81%30.09 "Hg10 mi
11:00 PM43 °FClear.2 mph87%30.09 "Hg10 mi
10:30 PM43 °FClear.2 mph81%30.07 "Hg10 mi
10:00 PM45 °FPassing clouds.3 mph81%30.07 "HgN/A
9:30 PM46 °FPassing clouds.2 mph76%30.04 "HgN/A
9:00 PM48 °FPassing clouds.3 mph76%30.01 "HgN/A
8:30 PM50 °FPassing clouds.3 mph67%30.01 "HgN/A
8:00 PM50 °FPassing clouds.3 mph71%29.98 "HgN/A
7:00 PM54 °FPassing clouds.7 mph67%29.95 "HgN/A
6:30 PM55 °FPassing clouds.9 mph63%29.92 "HgN/A
6:00 PM57 °FScattered clouds.12 mph63%29.89 "HgN/A
5:30 PM57 °FPartly sunny.7 mph72%29.89 "HgN/A
5:00 PM57 °FPartly sunny.9 mph77%29.89 "HgN/A
4:30 PM55 °FPartly sunny.7 mph82%29.86 "HgN/A
4:00 PM55 °FPartly sunny.8 mph82%29.86 "HgN/A
3:30 PM57 °FBroken clouds.9 mph82%29.83 "HgN/A
3:00 PM55 °FBroken clouds.8 mph88%29.83 "HgN/A
2:30 PM55 °FSprinkles. Partly sunny.9 mph88%29.83 "Hg5 mi
2:07 PM55 °FSprinkles. Partly sunny.7 mph94%29.80 "HgN/A
2:00 PM55 °FPartly sunny.6 mph94%29.80 "HgN/A
1:30 PM55 °FPartly sunny.7 mph100%29.80 "HgN/A
1:00 PM54 °FPartly sunny.7 mph94%29.80 "Hg3 mi
12:30 PM52 °FDrizzle. Low clouds.10 mph100%29.77 "Hg2 mi
12:00 PM52 °FDrizzle. Low clouds.14 mph94%29.77 "Hg2 mi
11:30 AM50 °FDrizzle. Low clouds.16 mph94%29.80 "Hg2 mi
11:00 AM50 °FDrizzle. Low clouds.14 mph94%29.80 "Hg2 mi
10:30 AM48 °FDrizzle. Partly sunny.16 mph94%29.80 "Hg3 mi
10:00 AM48 °FDrizzle. Partly sunny.17 mph94%29.80 "Hg3 mi
9:30 AM46 °FDrizzle. Partly sunny.17 mph93%29.80 "Hg3 mi
9:00 AM45 °FDrizzle. Partly sunny.16 mph100%29.80 "Hg3 mi
8:30 AM45 °FPartly sunny.14 mph93%29.80 "Hg4 mi
8:00 AM45 °FLight rain. Partly sunny.13 mph93%29.83 "Hg2 mi
7:30 AM45 °FLight rain. Partly sunny.10 mph87%29.83 "Hg5 mi
7:00 AM45 °FLight rain. Partly sunny.12 mph87%29.86 "HgN/A
6:30 AM43 °FLight rain. Passing clouds.10 mph93%29.86 "HgN/A
6:00 AM45 °FLight rain. Passing clouds.8 mph81%29.86 "HgN/A
5:30 AM45 °FLight rain. Clear.7 mph81%29.86 "HgN/A
5:00 AM43 °FClear.6 mph87%29.86 "Hg10 mi
4:30 AM43 °FClear.6 mph87%29.89 "HgN/A
4:00 AM41 °FClear.6 mph93%29.89 "HgN/A
3:30 AM37 °FClear.6 mph100%29.89 "HgN/A
3:00 AM37 °FClear.6 mph93%29.92 "HgN/A
2:30 AM37 °FClear.5 mph93%29.92 "HgN/A
2:00 AM36 °FClear.3 mph100%29.92 "Hg10 mi
1:30 AM36 °FClear.3 mph100%29.95 "Hg10 mi
1:00 AM34 °FClear.3 mph93%29.95 "Hg10 mi
12:30 AM34 °FClear.3 mph93%29.95 "Hg10 mi
12:00 AM36 °FClear.1 mph93%29.95 "Hg10 mi
Weather by CustomWeather, © 2015

See weather overviewHow to use our weather pages